Regional Weather Roundup
Issued by NWS Boston, MA

Current Version | Previous Version | Text Only | Print | Product List | Glossary Off
Versions: 1 2 3 4 5 6 7 8 9 10 11 12 13 14 15 16 17 18 19 20 21 22 23 24 25 26 27

000
ASUS41 KBOX 201110
RWRBOX

REGIONAL WEATHER ROUNDUP
NATIONAL WEATHER SERVICE TAUNTON MA
600 AM EST MON NOV 20 2017

NOTE:  "FAIR" INDICATES FEW OR NO CLOUDS BELOW 12,000 FEET WITH NO
SIGNIFICANT WEATHER AND/OR OBSTRUCTIONS TO VISIBILITY.

MAZALL-201200-
EASTERN MASSACHUSETTS

CITY           SKY/WX    TMP DP  RH WIND       PRES   REMARKS
BOSTON         PTCLDY    36  23  59 W16       29.79R WCI  26
BEVERLY        PTCLDY    34  25  69 W10       29.77R WCI  26
LAWRENCE       MOCLDY    36  25  64 SW13      29.78R WCI  27
BEDFORD        MOCLDY    33  21  61 W10G18    29.78R WCI  25
BLUE HILL      NOT AVBL
NORWOOD        CLEAR     36  23  59 W10       29.81R WCI  28
MARSHFIELD     PTCLDY    36  23  60 VRB7G15   29.80R WCI  30
PLYMOUTH       CLEAR     35  21  56 W9        29.80R WCI  28
TAUNTON        CLEAR     35  23  61 W9        29.81R WCI  28
NEW BEDFORD    CLEAR     46  23  40 W15       29.82R
$$

MAZALL-201200-
CAPE COD AND THE ISLANDS

CITY           SKY/WX    TMP DP  RH WIND       PRES   REMARKS
FALMOUTH       PTCLDY    36  21  55 W18       29.81R WCI  25
HYANNIS        PTCLDY    37  21  52 W15G24    29.79R WCI  28
CHATHAM        CLOUDY    37  25  61 W12G22    29.80R WCI  29
PROVINCETOWN   MOCLDY    37  26  64 W18G29    29.79R WCI  27
NANTUCKET      CLEAR     38  25  59 W16G22    29.81R WCI  29
MARTHAS VNYRD  MOCLDY    38  24  57 W16G28    29.82R WCI  29
$$

MAZALL-201200-
CENTRAL AND WESTERN MASSACHUSETTS

CITY           SKY/WX    TMP DP  RH WIND       PRES   REMARKS
WORCESTER      PTCLDY    30  13  49 W30G40    29.76R WCI  15
FITCHBURG      PTCLDY    34  22  61 W21G36    29.79R WCI  22
ORANGE         CLEAR     31  16  54 NW10G22   29.81R WCI  22
SPRINGFIELD    PTCLDY    32  15  49 NW17G25   29.85R WCI  21
WESTFIELD      MOCLDY    33  18  53 NW10G26   29.86R WCI  25
NORTH ADAMS    CLOUDY    30  18  60 W12G21    29.84R WCI  20
PITTSFIELD     FLURRIES  28  19  69 NW15G25   29.82R WCI  16
$$

RIZALL-201200-
RHODE ISLAND

CITY           SKY/WX    TMP DP  RH WIND       PRES   REMARKS
PROVIDENCE     PTCLDY    36  20  52 W15G21    29.85R WCI  27
NEWPORT        CLEAR     35  24  64 W9        29.84R WCI  28
BLOCK ISLAND   PTCLDY    37  19  48 NW18G29   29.88R WCI  27
SMITHFIELD     PTCLDY    33  19  56 W15G24    29.82R WCI  23
WESTERLY       CLEAR     36  24  62 VRB6      29.88R WCI  31
$$

CTZALL-201200-
CONNECTICUT

CITY           SKY/WX    TMP DP  RH WIND       PRES   REMARKS
BRADLEY INTL   PTCLDY    33  18  53 W9        29.87R WCI  25
HARTFORD       MOCLDY    34  20  56 NW5       29.89R WCI  30
BRIDGEPORT     PTCLDY    37  18  46 W9        29.92R WCI  30
DANBURY        PTCLDY    34  18  52 W10       29.91R WCI  26
GROTON         CLEAR     35  19  52 W12       29.88R WCI  27
NEW HAVEN      PTCLDY    37  18  46 VRB7      29.91R WCI  32
CHESTER        FAIR      32  18  55 VRB3      29.88R
MERIDEN        PTCLDY    32  19  58 W3        29.90R
WILLIMANTIC    PTCLDY    35  18  49 W7G23     29.87R WCI  29
OXFORD         PTCLDY    31  18  58 W6        29.87R WCI  25
$$

MEZ002-015-021-024-NHZ003-005-008-011-012-014-VTZ005-008-201200-
NORTHERN NEW ENGLAND

CITY           SKY/WX    TMP DP  RH WIND       PRES   REMARKS
PORTLAND ME    PTCLDY    30  17  58 SW7       29.71R WCI  23
BANGOR ME      MOCLDY    30  17  58 W8        29.62R WCI  22
CONCORD NH     MOCLDY    33  19  56 NW12      29.75R WCI  24
MANCHESTER NH  MOCLDY    31  21  66 VRB5      29.75R WCI  26
NASHUA NH      MOCLDY    33  25  72 W8        29.78R WCI  26
PORTSMOUTH NH  PTCLDY    31  20  61 W8        29.74R WCI  24
JAFFREY NH     FLURRIES  29  24  82 W8        29.75R WCI  21
KEENE NH       MOCLDY    31  15  52 W7G22     29.80R WCI  24
BURLINGTON VT  MOCLDY    27  15  61 NW16G26   29.79R WCI  15
MT. WASHINGTON SNOWSHWR   3   3 100 W70G76      N/A  VSB 0   WCI -30
$$

NYZ052-076-201200-
EASTERN NEW YORK

CITY           SKY/WX    TMP DP  RH WIND       PRES   REMARKS
ALBANY         CLOUDY    31  19  61 NW7       29.90R WCI  24
NEW YORK CITY  MOCLDY    39  25  57 W14       29.96R WCI  31
$$

ANZALL-201200-
MARINE OBSERVATIONS

STATION/POSITION TIME  TEMP    WIND        PRES    VSBY  WAVE
                       AIR SEA DIR/SP/G                  HT/PER
                 (UTC) (F)     (DEG/KT/KT) (MB)    (MI)  (FT/S)
BOSTON BUOY      1050   39 50  270/ 23/ 29 1006.8R         3/ 4
BUZZARDS BAY     1000   38     290/ 28/ 32 1009.8R
NANTUCKET SOUND  0950   41 49  290/ 21/ 25 1008.0          3/ 5
MASS BAY-STELLWA 1004   40 49  280/ 19/ 25 1006.5R         3/ 4
ISLE OF SHOALS   1000   36     270/ 17/ 20 1006.2R
S OF BLOCK IS    NOT AVBL
$$

......................KEY.........................
  SKY/WX - SKY CONDITION/PRESENT WEATHER
  TMP    - TEMPERATURE IN FAHRENHEIT
  DWPT   - DEWPOINT IN FAHRENHEIT
  RH     - RELATIVE HUMIDITY IN PERCENT
  WIND   - DIRECTION AND SPEED IN MPH
  PRES   - MEAN SEA LEVEL PRESSURE IN INCHES OF HG
  WCI    - WIND CHILL INDEX
  VSB    - VISIBILITY IN MILES
  HX     - HEAT INDEX
  TC     - TEMPERATURE IN CELSIUS
  VRB    - VARIABLE WIND DIRECTION
  N/A    - NOT AVAILABLE




USA.gov is the U.S. government's official web portal to all federal, state and local government web resources and services.